Погода в Кондраково

Россия / Ивановская область     57°23′57″N   42°31′51″E
темп.,
°C
ветер,
м/с
пор.,
м/с
влажн.,
%
обл.,
%
осадки,
мм/ч
давл.,
гПа
погр.,
м
22 октября, пт
пт2200:00+9юз41295100 0.0 993502
03:00+9ююз51493100 0.5 991701
06:00+9юз51488100 0.4 989698
09:00+10юз61485100 0.4 990915
12:00+11юз7137843 0.0 9911263
15:00+11зюз6137215 0.1 9921307
18:00+8з715755 0.4 9941300
21:00+6зюз6147815 0.4 9971170
23 октября, сб
сб2300:00+5зюз6137692 0.0 998986
03:00+5зюз61280100 0.0 9991189
06:00+5юз5127988 0.0 1000773
09:00+5юз51080100 0.0 10011079
12:00+7юз5978100 0.1 1002939
15:00+7юз4976100 0.1 1003934
18:00+6ююз4983100 0.1 1003745
21:00+5юз41081100 0.2 1003668
24 октября, вс
вс2400:00+4зюз4996100 0.1 1004673
03:00+3зюз41096100 1.3 1004701
06:00+4зюз3797100 0.3 1004696
09:00+4зюз3688100 0.5 1005780
12:00+3юз3593100 0.1 1007609
15:00+4зюз129192 0.4 1008422
18:00+3зсз1295100 0.1 1010371
21:00+3сз3697100 0.3 1012538
25 октября, пн
пн2500:00+1ссз5109092 0.2 1015709
03:000ссз5108497 0.4 1018852
06:00−2ссз412865 0.0 1021600
09:00−1ссз49825 0.0 1023498
12:00+2сз47595 0.0 1025940
15:00+2зсз37616 0.0 1025877
18:00−1з2780100 0.0 1026205
21:00−1зюз3875100 0.0 1026348
26 октября, вт
вт2600:000юз31075100 0.0 1024495
03:00−1юз41391100 0.0 1023560
06:000юз4127787 0.0 1021554
09:00+1зюз41278100 0.0 1020511
12:00+3зюз41172100 0.0 1019626
15:00+3зюз41174100 0.0 1017643
18:00+2юз41279100 0.0 1017547
21:00+1юз41279100 0.0 1015537